Hourly Data Report for October 09, 2015

All times are specified in Local Standard Time (LST). Add 1 hour to adjust for Daylight Saving Time where and when it is observed.

GJOA HAVEN A
NUNAVUT

68°38'08.000" N
95°51'01.000" W
46.90 m
2302337
71597
YHK

Download Data

Hourly Data (October 2015)
Hourly Data Report for October 9, 2015
Temp Definition
°C
Dew Point Temp Definition
°C
Rel Hum Definition
%
Wind Dir Definition
10's deg

Wind Spd Definition
km/h
Visibility Definition
km
Stn Press Definition
kPa
Hmdx Definition


Wind Chill Definition


Weather Definition


TIME
00:00 Legend Double Dagger -8.8 -9.6 94 33 28 16.1 99.69   -18 LegendNANA
01:00 Legend Double Dagger -7.6 -8.5 93 33 39 2.0 99.77   -17 Snow
02:00 Legend Double Dagger -8.1 -8.8 95 34 34 2.0 99.86   -18 Snow
03:00 Legend Double Dagger -7.7 -8.5 94 35 32 16.1 99.92   -17 LegendNANA
04:00 Legend Double Dagger -8.6 -9.4 94 34 24 16.1 100.01   -17 LegendNANA
05:00 Legend Double Dagger -7.9 -8.7 94 34 24 16.1 100.06   -16 LegendNANA
06:00 Legend Double Dagger -7.4 -8.3 93 34 26 16.1 100.11   -16 Snow
07:00 Legend Double Dagger -8.3 -9.0 95 33 24 14.5 100.17   -16 Snow
08:00 Legend Double Dagger -9.2 -10.0 94 33 21 16.1 100.20   -17 LegendNANA
09:00 Legend Double Dagger -9.8 -10.6 94 34 22 16.1 100.24   -18 LegendNANA
10:00 Legend Double Dagger -8.6 -9.4 94 34 21 16.1 100.28   -16 LegendNANA
11:00 Legend Double Dagger -9.1 -10.2 92 33 18 16.1 100.32   -16 LegendNANA
12:00 Legend Double Dagger -9.4 -10.4 93 33 17 16.1 100.35   -16 LegendNANA
13:00 Legend Double Dagger -8.5 -9.4 93 32 15 16.1 100.37   -15 LegendNANA
14:00 Legend Double Dagger -7.9 -9.1 91 31 11 16.1 100.39   -13 LegendNANA
15:00 Legend Double Dagger -8.2 -9.1 93 30 9 16.1 100.42   -13 LegendNANA
16:00 Legend Double Dagger -7.5 -9.0 89 31 13 16.1 100.42   -13 LegendNANA
17:00 Legend Double Dagger -7.4 -8.8 90 29 5 16.1 100.43   -10 LegendNANA
18:00 Legend Double Dagger -6.9 -10.1 78   0 16.1 100.44     LegendNANA
19:00 Legend Double Dagger -6.8 -10.4 76 15 5 16.1 100.41   -9 LegendNANA
20:00 Legend Double Dagger -6.0 -8.4 83 19 18 9.7 100.36   -12 Snow
21:00 Legend Double Dagger -5.7 -8.0 84 17 18 12.9 100.32   -12 Snow
22:00 Legend Double Dagger -5.8 -8.2 83 20 26 12.9 100.30   -14 Freezing Rain
23:00 Legend Double Dagger -5.9 -8.3 83 20 35 12.9 100.26   -15 Freezing Rain

Notes on Data Quality.

Legend

  • E = Estimated
  • M = Missing
  • NA = Not Available
  • ‡ = Partner data that is not subject to review by the National Climate Archives
Date modified: